Flag for Germany Weather past 2 weeks in Lörrach, Baden-Württemberg, Germany

Now
43 °F

Passing clouds.


Feels Like: 39 °F
Forecast: 38 / 63 °F
Wind: 6 mph from Northwest

Location: Bale-Mulhouse

Current Time: Apr 18, 2015 at 7:33:01 AM

Latest Report: Apr 18, 2015 at 7:00 AM


Visibility: N/A

Pressure: 30.12 "Hg

Humidity: 87%

Dew point: 39 °F

Location of LörrachLocation

Historic Weather in Lörrach — Graph

°F

Lörrach temperature yesterday

Maximum temperature yesterday: 57 °F (at 12:00 AM)
Minimum temperature yesterday: 46 °F (at 10:30 PM)
Average temperature yesterday: 55 °F

Past Weeks' High & Low Weather Summary

 TemperatureHumidityPressure
High79 °F (Apr 15, 4:00 PM)100% (Apr 3, 6:00 AM)30.57 "Hg (Apr 3, 6:00 AM)
Low27 °F (Apr 6, 4:30 AM)20% (Apr 15, 4:30 PM)29.86 "Hg (Apr 4, 2:00 PM)
Average51 °F66%30.23 "Hg
* Reported Apr 3 6:00 AM — Apr 18 6:30 AM, Lörrach, Weather by CustomWeather, © 2015

Note: Actual official high and low records may vary slightly from our data, if they occured in-between our weather recording intervals... More about our weather records

Advertising

Lörrach weather history for previous 24 hours

 ConditionsComfort  
Time TempWeatherWind HumidityBarometerVisibility
6:30 AM
Sat, Apr 18
43 °FPassing clouds.8 mph87%30.12 "HgN/A
6:00 AM43 °FPassing clouds.8 mph87%30.09 "HgN/A
5:30 AM43 °FPassing clouds.8 mph93%30.09 "HgN/A
5:00 AM43 °FPassing clouds.8 mph93%30.09 "HgN/A
4:30 AM45 °FOvercast.8 mph87%30.09 "HgN/A
4:00 AM45 °FMostly cloudy.9 mph87%30.09 "HgN/A
3:30 AM45 °FOvercast.9 mph87%30.09 "HgN/A
3:00 AM46 °FOvercast.8 mph87%30.09 "Hg5 mi
2:30 AM46 °FFog.7 mph93%30.09 "Hg2 mi
2:00 AM46 °FDrizzle. Mostly cloudy.6 mph93%30.09 "Hg6 mi
1:30 AM46 °FPassing clouds.3 mph93%30.07 "HgN/A
1:00 AM46 °FLight rain. Mostly cloudy.3 mph93%30.07 "HgN/A
12:30 AM46 °FLight rain. Mostly cloudy.6 mph93%30.07 "Hg6 mi
12:00 AM46 °FLight rain. Passing clouds.6 mph93%30.07 "Hg5 mi
11:30 PM
Fri, Apr 17
46 °FLight rain. Passing clouds.6 mph93%30.04 "Hg4 mi
11:00 PM46 °FLight rain. Partly cloudy.9 mph93%30.04 "Hg3 mi
10:30 PM46 °FLight rain. Partly cloudy.8 mph93%30.04 "Hg3 mi
10:00 PM48 °FRain. Passing clouds.12 mph94%30.04 "Hg2 mi
9:30 PM48 °FRain. Passing clouds.9 mph100%30.01 "Hg2 mi
9:00 PM52 °FLight rain. Broken clouds.8 mph94%30.01 "Hg4 mi
8:30 PM54 °FRain. Broken clouds.8 mph94%29.98 "Hg3 mi
8:00 PM54 °FLight rain. Partly sunny.12 mph94%29.98 "Hg4 mi
7:30 PM55 °FLight rain. Partly sunny.10 mph94%29.95 "Hg5 mi
7:00 PM55 °FRain. Partly sunny.10 mph94%29.95 "Hg4 mi
6:30 PM55 °FLight rain. Partly sunny.12 mph94%29.95 "Hg5 mi
6:00 PM55 °FLight rain. Partly sunny.10 mph94%29.95 "Hg5 mi
5:30 PM55 °FLight rain. Partly sunny.12 mph94%29.95 "Hg5 mi
5:00 PM57 °FPartly sunny.12 mph88%29.95 "HgN/A
4:30 PM57 °FBroken clouds.8 mph88%29.95 "HgN/A
4:00 PM55 °FLight rain. Broken clouds.8 mph88%29.95 "Hg4 mi
3:30 PM55 °FLight rain. Broken clouds.6 mph94%29.95 "Hg4 mi
3:00 PM54 °FLight rain. Broken clouds.5 mph94%29.98 "Hg4 mi
2:30 PM55 °FLight rain. Broken clouds.7 mph88%29.98 "Hg4 mi
2:00 PM55 °FLight rain. Broken clouds.7 mph88%29.98 "Hg4 mi
1:30 PM55 °FLight rain. Broken clouds.6 mph88%29.98 "Hg5 mi
1:00 PM55 °FBroken clouds.2 mph88%29.98 "HgN/A
12:30 PM55 °FBroken clouds.No wind88%29.98 "HgN/A
12:00 PM55 °FPartly sunny.3 mph94%29.95 "HgN/A
11:30 AM54 °FRain. Partly sunny.2 mph94%29.95 "Hg2 mi
11:00 AM55 °FRain. Partly sunny.1 mph88%29.95 "Hg2 mi
10:30 AM55 °FRain. Partly sunny.5 mph88%29.95 "HgN/A
10:00 AM55 °FLight rain. Partly sunny.8 mph82%29.95 "HgN/A
9:30 AM55 °FLight rain. Partly sunny.6 mph88%29.95 "Hg4 mi
9:19 AM55 °FLight rain. Partly sunny.7 mph82%29.95 "HgN/A
9:00 AM57 °FPartly sunny.3 mph77%29.95 "HgN/A
8:30 AM55 °FBroken clouds.No wind88%29.95 "HgN/A
8:00 AM55 °FBroken clouds.2 mph88%29.92 "HgN/A
7:30 AM55 °FPartly cloudy.6 mph88%29.92 "HgN/A
7:00 AM55 °FPartly cloudy.2 mph88%29.92 "HgN/A
Weather by CustomWeather, © 2015

See weather overviewHow to use our weather pages